Location: Cormont
(50.5693°N, 1.7416°E)
Time: 01:49:56
(UTC+00:00)

STARLINK-57 - Pass Details

Date: 21 October 2019
Orbit: 548 x 551 km, 53.0° (Epoch: 21 November)

Event Time Altitude Azimuth Distance (km) Brightness Sun altitude
Rises 17:25:06 0° 264° (W) 2,715 9.9 -6.3°
Reaches altitude 10° 17:27:21 10° 268° (W) 1,823 8.1 -6.7°
Maximum altitude 17:31:28 66° 350° (N) 604 3.8 -7.3°
Enters shadow 17:35:36 10° 74° (ENE) 1,827 5.6 -8.0°
